| time (UTC) | temp F | wind direction | speed MPH | gust MPH | rain 1hr in | rain 24hr in | rain mn in | humidity % | barometer mb |
| 20260510160031 | 62 | 148 | 0.0 | 3.0 | 0.00 | 2.56 | 0.00 | 60 | 1018.3 |
| 20260510154537 | 60 | 172 | 1.0 | 3.0 | 0.00 | 2.56 | 0.00 | 64 | 1018.0 |
| 20260510153030 | 59 | 139 | 1.0 | 3.0 | 0.00 | 2.56 | 0.00 | 64 | 1017.9 |
| 20260510151530 | 58 | 114 | 0.0 | 3.0 | 0.00 | 2.56 | 0.00 | 64 | 1017.9 |
| 20260510150106 | 56 | 10 | 1.0 | 4.0 | 0.00 | 2.56 | 0.00 | 65 | 1018.0 |
| 20260510143036 | 55 | 156 | 5.0 | 8.0 | 0.00 | 2.56 | 0.00 | 64 | 1017.6 |
| 20260510141647 | 53 | 154 | 5.0 | 9.0 | 0.00 | 2.56 | 0.00 | 64 | 1017.5 |
| 20260510140034 | 52 | 147 | 5.0 | 8.0 | 0.00 | 2.56 | 0.00 | 65 | 1017.5 |
| 20260510134532 | 51 | 144 | 5.0 | 8.0 | 0.00 | 2.56 | 0.00 | 65 | 1017.8 |
| 20260510133032 | 51 | 166 | 5.0 | 9.0 | 0.00 | 2.56 | 0.00 | 66 | 1017.7 |
| 20260510131529 | 49 | 152 | 6.0 | 11.0 | 0.00 | 2.56 | 0.00 | 67 | 1017.5 |
| 20260510130107 | 49 | 156 | 6.0 | 9.0 | 0.00 | 2.56 | 0.00 | 67 | 1017.5 |
| 20260510124534 | 49 | 152 | 6.0 | 10.0 | 0.00 | 2.56 | 0.00 | 67 | 1017.5 |
| 20260510123036 | 48 | 142 | 6.0 | 10.0 | 0.00 | 2.56 | 0.00 | 68 | 1017.8 |
| 20260510121529 | 48 | 148 | 5.0 | 9.0 | 0.00 | 2.56 | 0.00 | 68 | 1017.9 |
| 20260510120034 | 48 | 140 | 5.0 | 9.0 | 0.00 | 2.56 | 0.00 | 67 | 1017.6 |
| 20260510114535 | 49 | 122 | 3.0 | 8.0 | 0.00 | 2.56 | 0.00 | 66 | 1017.8 |
| 20260510113030 | 49 | 156 | 6.0 | 10.0 | 0.00 | 2.56 | 0.00 | 66 | 1017.5 |
| 20260510111531 | 49 | 155 | 6.0 | 10.0 | 0.00 | 2.56 | 0.00 | 66 | 1017.5 |
| 20260510110105 | 49 | 151 | 6.0 | 11.0 | 0.00 | 2.56 | 0.00 | 66 | 1017.4 |
| 20260510103106 | 49 | 142 | 5.0 | 8.0 | 0.00 | 2.56 | 0.00 | 65 | 1017.8 |
| 20260510101533 | 49 | 148 | 5.0 | 9.0 | 0.00 | 2.56 | 0.00 | 64 | 1017.6 |
| 20260510100030 | 50 | 152 | 5.0 | 9.0 | 0.00 | 2.56 | 0.00 | 63 | 1017.5 |
| 20260510094531 | 51 | 161 | 5.0 | 9.0 | 0.00 | 2.56 | 0.00 | 62 | 1017.6 |
| 20260510093030 | 52 | 156 | 6.0 | 11.0 | 0.00 | 2.56 | 0.00 | 62 | 1017.6 |
| 20260510091530 | 52 | 154 | 6.0 | 11.0 | 0.00 | 2.56 | 0.00 | 62 | 1017.8 |
| 20260510090035 | 52 | 150 | 7.0 | 12.0 | 0.00 | 2.56 | 0.00 | 62 | 1017.9 |
| 20260510084535 | 52 | 156 | 7.0 | 13.0 | 0.00 | 2.56 | 0.00 | 62 | 1018.1 |
| 20260510083032 | 52 | 156 | 6.0 | 10.0 | 0.00 | 2.56 | 0.00 | 63 | 1018.2 |
| 20260510081530 | 52 | 151 | 6.0 | 10.0 | 0.00 | 2.56 | 0.00 | 64 | 1018.4 |
| 20260510080033 | 52 | 154 | 6.0 | 10.0 | 0.00 | 2.56 | 0.00 | 64 | 1018.5 |
| 20260510074532 | 52 | 152 | 5.0 | 12.0 | 0.00 | 2.56 | 0.00 | 64 | 1018.5 |
| 20260510073030 | 52 | 164 | 5.0 | 9.0 | 2.56 | 2.56 | 0.00 | 64 | 1018.5 |
| 20260510071607 | 53 | 161 | 5.0 | 8.0 | 2.56 | 2.56 | 0.00 | 64 | 1018.5 |
| 20260510070034 | 53 | 147 | 6.0 | 9.0 | 2.56 | 2.56 | 0.00 | 64 | 1018.4 |
| 20260510064533 | 66 | 139 | 654.0 | 0.0 | 2.56 | 2.56 | 0.00 | 66 | 1013.9 |
| 20260510061530 | 54 | 143 | 5.0 | 8.0 | 0.00 | 0.00 | 0.00 | 64 | 1018.4 |
| 20260510060037 | 55 | 148 | 6.0 | 8.0 | 0.00 | 0.00 | 0.00 | 64 | 1018.3 |
| 20260510054534 | 53 | 149 | 6.0 | 9.0 | 0.00 | 0.00 | 0.00 | 65 | 1018.3 |
| 20260510053037 | 54 | 152 | 5.0 | 8.0 | 0.00 | 0.00 | 0.00 | 64 | 1018.3 |
| 20260510051535 | 54 | 181 | 5.0 | 8.0 | 0.00 | 0.00 | 0.00 | 64 | 1018.2 |
| 20260510050107 | 54 | 167 | 4.0 | 8.0 | 0.00 | 0.00 | 0.00 | 65 | 1018.1 |
| 20260510044535 | 54 | 162 | 4.0 | 7.0 | 0.00 | 0.00 | 0.00 | 65 | 1017.9 |
| 20260510043033 | 55 | 162 | 4.0 | 6.0 | 0.00 | 0.00 | 0.00 | 65 | 1018.0 |
| 20260510041533 | 55 | 155 | 4.0 | 5.0 | 0.00 | 0.00 | 0.00 | 64 | 1017.9 |
| 20260510040106 | 57 | 156 | 4.0 | 6.0 | 0.00 | 0.00 | 0.00 | 62 | 1017.8 |
| 20260510033030 | 61 | 169 | 3.0 | 5.0 | 0.00 | 0.00 | 0.00 | 60 | 1017.6 |
| 20260510031531 | 62 | 154 | 3.0 | 4.0 | 0.00 | 0.00 | 0.00 | 59 | 1017.6 |
| 20260510030106 | 64 | 180 | 0.0 | 3.0 | 0.00 | 0.00 | 0.00 | 57 | 1017.6 |
| 20260510024535 | 65 | 197 | 1.0 | 2.0 | 0.00 | 0.00 | 0.00 | 53 | 1017.7 |
| 20260510023031 | 66 | 225 | 0.0 | 2.0 | 0.00 | 0.00 | 0.00 | 50 | 1017.8 |
| 20260510021532 | 67 | 260 | 0.0 | 2.0 | 0.00 | 0.00 | 0.00 | 47 | 1017.6 |
| 20260510020034 | 69 | 270 | 0.0 | 1.0 | 0.00 | 0.00 | 0.00 | 42 | 1017.7 |
| 20260510014535 | 71 | 270 | 1.0 | 3.0 | 0.00 | 0.00 | 0.00 | 40 | 1017.9 |
| 20260510013034 | 71 | 275 | 2.0 | 5.0 | 0.00 | 0.00 | 0.00 | 41 | 1018.2 |
| 20260510010033 | 72 | 274 | 2.0 | 7.0 | 0.00 | 0.00 | 0.00 | 40 | 1018.2 |
| 20260510004530 | 73 | 293 | 3.0 | 8.0 | 0.00 | 0.00 | 0.00 | 40 | 1018.2 |
| 20260510001534 | 72 | 316 | 3.0 | 7.0 | 0.00 | 0.00 | 0.00 | 42 | 1018.3 |
| 20260509234643 | 74 | 300 | 4.0 | 10.0 | 0.00 | 0.00 | 0.00 | 41 | 1018.5 |
| 20260509233031 | 74 | 307 | 3.0 | 10.0 | 0.00 | 0.00 | 0.00 | 42 | 1018.6 |
| 20260509231531 | 73 | 300 | 3.0 | 8.0 | 0.00 | 0.00 | 0.00 | 42 | 1018.9 |
| 20260509230030 | 73 | 328 | 4.0 | 10.0 | 0.00 | 0.00 | 0.00 | 42 | 1019.0 |
| 20260509224531 | 73 | 338 | 3.0 | 7.0 | 0.00 | 0.00 | 0.00 | 42 | 1019.3 |
| 20260509223034 | 73 | 299 | 4.0 | 8.0 | 0.00 | 0.00 | 0.00 | 43 | 1019.6 |
| 20260509221607 | 73 | 297 | 4.0 | 11.0 | 0.00 | 0.00 | 0.00 | 45 | 1019.8 |
| 20260509220037 | 73 | 314 | 4.0 | 10.0 | 0.00 | 0.00 | 0.00 | 46 | 1019.9 |
| 20260509214528 | 73 | 310 | 4.0 | 9.0 | 0.00 | 0.00 | 0.00 | 47 | 1020.0 |
| 20260509213029 | 71 | 302 | 4.0 | 13.0 | 0.00 | 0.00 | 0.00 | 49 | 1020.2 |
| 20260509211532 | 71 | 325 | 4.0 | 9.0 | 0.00 | 0.00 | 0.00 | 49 | 1020.3 |
| 20260509210032 | 71 | 319 | 3.0 | 8.0 | 0.00 | 0.00 | 0.00 | 49 | 1020.5 |
| 20260509203030 | 70 | 299 | 4.0 | 10.0 | 0.00 | 0.00 | 0.00 | 51 | 1020.7 |
| 20260509201530 | 70 | 327 | 4.0 | 10.0 | 0.00 | 0.00 | 0.00 | 51 | 1020.9 |
| 20260509200031 | 69 | 318 | 4.0 | 9.0 | 0.00 | 0.00 | 0.00 | 51 | 1021.1 |
| 20260509194533 | 69 | 321 | 4.0 | 8.0 | 0.00 | 0.00 | 0.00 | 50 | 1021.2 |
| 20260509193031 | 69 | 298 | 3.0 | 11.0 | 0.00 | 0.00 | 0.00 | 50 | 1021.3 |
| 20260509191534 | 67 | 330 | 3.0 | 8.0 | 0.00 | 0.00 | 0.00 | 50 | 1021.4 |
| 20260509190107 | 67 | 326 | 4.0 | 10.0 | 0.00 | 0.00 | 0.00 | 51 | 1021.6 |
| 20260509184610 | 66 | 304 | 3.0 | 7.0 | 0.00 | 0.00 | 0.00 | 52 | 1021.8 |
| 20260509183029 | 65 | 348 | 4.0 | 9.0 | 0.00 | 0.00 | 0.00 | 51 | 1021.9 |
| 20260509181652 | 64 | 334 | 4.0 | 8.0 | 0.00 | 0.00 | 0.00 | 50 | 1022.0 |
| 20260509174530 | 64 | 299 | 3.0 | 8.0 | 0.00 | 0.00 | 0.00 | 51 | 1021.9 |
| 20260509171531 | 62 | 345 | 4.0 | 8.0 | 0.00 | 0.00 | 0.00 | 50 | 1022.1 |
| 20260509170106 | 61 | 316 | 4.0 | 8.0 | 0.00 | 0.00 | 0.00 | 49 | 1022.2 |
| 20260509164607 | 60 | 341 | 4.0 | 7.0 | 0.00 | 0.00 | 0.00 | 49 | 1022.2 |
| 20260509163031 | 61 | 339 | 4.0 | 7.0 | 0.00 | 0.00 | 0.00 | 49 | 1022.2 |
| 20260509161533 | 60 | 336 | 3.0 | 5.0 | 0.00 | 0.00 | 0.00 | 50 | 1022.2 |